Location: Follega
(52.8850°N, 5.7362°E)
Time: 04:09:46
(UTC+00:00)

Cosmos 2297 Rocket - Pass Details

Date: 09 October 2020
Orbit: 838 x 845 km, 71.0° (Epoch: 26 October)

Event Time Altitude Azimuth Distance (km) Brightness Sun altitude
Rises 22:31:48 0° 322° (NW) 3,417 6.1 -42.6°
Reaches altitude 10° 22:34:38 10° 310° (NW) 2,477 5.1 -42.7°
Enters shadow 22:35:15 13° 305° (NW) 2,298 4.9 -42.8°
